This demonstration page uses our WeatherBlox Daily Observations layout. Learn more.

Left ArrowRight Arrow

41.12389, -100.76542

Hourly Observations for February 28, 2017

Temp ( °F °C ) Dew Point ( °F °C ) Humidity (%) Winds ( mph kmh ) Pressure ( in mb ) Visibility ( mi km ) Precip ( " mm )
12:53 am 00:53 Clear 35 1.7 27 -2.8 72 72 N 17 28 29.61 1003 10 16 0.00 0.00
1:53 am 01:53 Clear 33 0.6 27 -2.8 78 78 NW 9 15 29.65 1004 10 16 0.00 0.00
2:53 am 02:53 Clear 31 -0.6 25 -3.9 79 79 NW 5 7 29.68 1005 10 16 0.00 0.00
3:53 am 03:53 Clear 29 -1.7 24 -4.4 82 82 WNW 13 20 29.72 1006 10 16 0.00 0.00
4:53 am 04:53 Clear 27 -2.8 21 -6.1 78 78 NW 12 19 29.72 1006 10 16 0.00 0.00
5:53 am 05:53 Clear 26 -3.3 21 -6.1 81 81 NW 10 17 29.72 1007 10 16 0.00 0.00
6:53 am 06:53 Clear 25 -3.9 21 -6.1 85 85 WNW 9 15 29.75 1008 10 16 0.00 0.00
7:53 am 07:53 Sunny 25 -3.9 21 -6.1 85 85 WNW 7 11 29.78 1008 10 16 0.00 0.00
8:53 am 08:53 Sunny 31 -0.6 24 -4.4 76 76 WNW 12 19 29.79 1009 10 16 0.00 0.00
9:53 am 09:53 Sunny 35 1.7 24 -4.4 64 64 WNW 12 19 29.78 1008 10 16 0.00 0.00
10:53 am 10:53 Sunny 40 4.4 22 -5.6 49 49 NW 8 13 29.75 1007 10 16 0.00 0.00
11:53 am 11:53 Cloudy 45 7.2 16 -8.9 31 31 NNE 10 17 29.73 1007 10 16 0.00 0.00
12:53 pm 12:53 Cloudy 45 7.2 9 -12.8 23 23 NNW 12 19 29.74 1007 10 16 0.00 0.00
1:53 pm 13:53 Cloudy 45 7.2 8 -13.3 22 22 WNW 13 20 29.76 1008 10 16 0.00 0.00
2:53 pm 14:53 Cloudy 43 6.1 13 -10.6 29 29 WNW 16 26 29.77 1008 10 16 0.00 0.00
3:53 pm 15:53 Cloudy 42 5.6 16 -8.9 35 35 NW 15 24 29.79 1009 10 16 0.00 0.00
4:53 pm 16:53 Cloudy 41 5 18 -7.8 39 39 NW 13 20 29.80 1009 10 16 0.00 0.00
5:53 pm 17:53 Cloudy 38 3.3 18 -7.8 44 44 NW 10 17 29.83 1010 10 16 0.00 0.00
6:53 pm 18:53 Cloudy 35 1.7 17 -8.3 48 48 NW 7 11 29.87 1012 10 16 0.00 0.00
7:53 pm 19:53 Mostly Clear 30 -1.1 16 -8.9 56 56 WNW 8 13 29.89 1012 10 16 0.00 0.00
8:53 pm 20:53 Clear 32 0 17 -8.3 54 54 WNW 9 15 29.90 1013 10 16 0.00 0.00
9:53 pm 21:53 Clear 26 -3.3 15 -9.4 63 63 W 9 15 29.93 1014 10 16 0.00 0.00
10:53 pm 22:53 Clear 24 -4.4 15 -9.4 68 68 W 7 11 29.94 1014 10 16 0.00 0.00
11:53 pm 23:53 Clear 20 -6.7 13 -10.6 74 74 WNW 7 11 29.95 1014 10 16 0.00 0.00

Powered by AerisWeather